Latest Coastal Weather Observations for Spring Bay

IDT60701

Issued at 12:52 am EST Wednesday 26 July 2017 (issued every 10 minutes, with the page automatically refreshed every 10 minutes)

About coastal observations | Map of coastal stations | Coastal observations for TAS | Marine services | Other Formats
Station Details ID: 092133 Name: SPRING BAY NTC AWS Lat: -42.55 Lon: 147.93 Height: 0.0 m
Data from the previous 72 hours. | See also: Recent months for locations in Tasmania
Date/Time
EST
Temp
°C
Wind Pressure Rain since
9am
mm
Weather Cloud Vis
km
Sea
Height
m
Swell
Dir  Spd
kts
Gust
kts
hPa Trend Height
m
Period
s
Dir
26/12:30am 9.9 - - - 1001.4 - - - - - - - - -
26/12:00am 9.4 - - - 1001.6 - - - - - - - - -
 
Date/Time
EST
Temp
°C
Wind Pressure Rain since
9am
mm
Weather Cloud Vis
km
Sea
Height
m
Swell
Dir  Spd
kts
Gust
kts
hPa Trend Height
m
Period
s
Dir
25/11:30pm 9.5 - - - 1001.6 - - - - - - - - -
25/11:00pm 11.1 - - - 1001.9 - - - - - - - - -
25/10:30pm 11.4 - - - 1001.8 - - - - - - - - -
25/10:00pm 11.4 - - - 1002.0 - - - - - - - - -
25/09:30pm 11.2 - - - 1002.2 - - - - - - - - -
25/09:00pm 11.5 - - - 1002.2 - - - - - - - - -
25/08:30pm 11.7 - - - 1002.5 - - - - - - - - -
25/08:00pm 12.1 - - - 1002.3 - - - - - - - - -
25/07:30pm 12.4 - - - 1002.5 - - - - - - - - -
25/07:00pm 12.1 - - - 1002.7 - - - - - - - - -
25/06:30pm 11.1 - - - 1002.6 - - - - - - - - -
25/06:00pm 12.6 - - - 1002.5 - - - - - - - - -
25/05:30pm 12.4 - - - 1002.5 - - - - - - - - -
25/05:00pm 13.8 - - - 1002.6 - - - - - - - - -
25/04:30pm 14.3 - - - 1002.4 - - - - - - - - -
25/04:00pm 14.9 - - - 1002.2 - - - - - - - - -
25/03:30pm 14.9 - - - 1002.5 - - - - - - - - -
25/03:00pm 14.7 - - - 1002.4 - - - - - - - - -
25/02:30pm 14.3 - - - 1002.6 - - - - - - - - -
25/02:00pm 14.5 - - - 1002.9 - - - - - - - - -
25/01:30pm 14.6 - - - 1003.1 - - - - - - - - -
25/01:00pm 14.3 - - - 1003.6 - - - - - - - - -
25/12:30pm 13.5 - - - 1004.1 - - - - - - - - -
25/12:00pm 13.6 - - - 1004.7 - - - - - - - - -
25/11:30am 11.4 - - - 1005.4 - - - - - - - - -
25/11:00am 11.6 - - - 1006.1 - - - - - - - - -
25/10:30am 10.2 - - - 1006.6 - - - - - - - - -
25/10:00am 9.9 - - - 1007.1 - - - - - - - - -
25/09:30am 10.6 - - - 1007.1 - - - - - - - - -
25/09:00am 10.2 - - - 1007.5 - - - - - - - - -
25/08:30am 9.4 - - - 1007.7 - - - - - - - - -
25/08:00am 8.6 - - - 1008.0 - - - - - - - - -
25/07:30am 8.2 - - - 1008.3 - - - - - - - - -
25/07:00am 8.2 - - - 1008.7 - - - - - - - - -
25/06:30am 8.3 - - - 1009.0 - - - - - - - - -
25/06:00am 7.4 - - - 1009.3 - - - - - - - - -
25/05:30am 7.7 - - - 1009.4 - - - - - - - - -
25/05:00am 7.5 - - - 1009.7 - - - - - - - - -
25/04:30am 7.4 - - - 1010.0 - - - - - - - - -
25/04:00am 7.5 - - - 1010.1 - - - - - - - - -
25/03:30am 8.3 - - - 1010.4 - - - - - - - - -
25/03:00am 8.5 - - - 1010.8 - - - - - - - - -
25/02:30am 8.6 - - - 1010.8 - - - - - - - - -
25/02:00am 8.4 - - - 1010.7 - - - - - - - - -
25/01:30am 8.1 - - - 1010.7 - - - - - - - - -
25/01:00am 7.4 - - - 1011.1 - - - - - - - - -
25/12:30am 7.3 - - - 1011.3 - - - - - - - - -
25/12:00am 7.3 - - - 1011.4 - - - - - - - - -
 
Date/Time
EST
Temp
°C
Wind Pressure Rain since
9am
mm
Weather Cloud Vis
km
Sea
Height
m
Swell
Dir  Spd
kts
Gust
kts
hPa Trend Height
m
Period
s
Dir
24/11:30pm 7.8 - - - 1011.6 - - - - - - - - -
24/11:00pm 8.9 - - - 1011.5 - - - - - - - - -
24/10:30pm 8.8 - - - 1011.5 - - - - - - - - -
24/10:00pm 8.3 - - - 1011.7 - - - - - - - - -
24/09:30pm 8.2 - - - 1011.6 - - - - - - - - -
24/09:00pm 7.9 - - - 1011.8 - - - - - - - - -
24/08:30pm 8.8 - - - 1011.7 - - - - - - - - -
24/08:00pm 9.3 - - - 1011.6 - - - - - - - - -
24/07:30pm 9.3 - - - 1011.6 - - - - - - - - -
24/07:00pm 9.7 - - - 1011.5 - - - - - - - - -
24/06:30pm 10.1 - - - 1011.3 - - - - - - - - -
24/06:00pm 10.3 - - - 1011.1 - - - - - - - - -
24/05:30pm 10.6 - - - 1010.9 - - - - - - - - -
24/05:00pm 10.8 - - - 1010.7 - - - - - - - - -
24/04:30pm 11.2 - - - 1010.5 - - - - - - - - -
24/04:00pm 11.4 - - - 1010.2 - - - - - - - - -
24/03:30pm 11.6 - - - 1010.1 - - - - - - - - -
24/03:00pm 11.6 - - - 1010.0 - - - - - - - - -
24/02:30pm 11.6 - - - 1010.1 - - - - - - - - -
24/02:00pm 11.7 - - - 1010.3 - - - - - - - - -
24/01:30pm 11.9 - - - 1010.3 - - - - - - - - -
24/01:00pm 11.3 - - - 1010.4 - - - - - - - - -
24/12:30pm 10.9 - - - 1010.6 - - - - - - - - -
24/12:00pm 10.7 - - - 1010.7 - - - - - - - - -
24/11:30am 10.3 - - - 1010.8 - - - - - - - - -
24/11:00am 10.0 - - - 1011.0 - - - - - - - - -
24/10:30am 9.7 - - - 1011.5 - - - - - - - - -
24/10:00am 9.6 - - - 1011.4 - - - - - - - - -
24/09:30am 8.7 - - - 1011.5 - - - - - - - - -
24/09:00am 8.5 - - - 1011.4 - - - - - - - - -
24/08:30am 7.8 - - - 1010.9 - - - - - - - - -
24/08:00am 7.4 - - - 1011.0 - - - - - - - - -
24/07:30am 7.4 - - - 1010.4 - - - - - - - - -
24/07:00am 7.2 - - - 1010.0 - - - - - - - - -
24/06:30am 7.3 - - - 1009.8 - - - - - - - - -
24/06:00am 7.2 - - - 1009.4 - - - - - - - - -
24/05:30am 7.1 - - - 1009.2 - - - - - - - - -
24/05:00am 6.9 - - - 1009.0 - - - - - - - - -
24/04:30am 7.1 - - - 1008.8 - - - - - - - - -
24/04:00am 7.0 - - - 1008.9 - - - - - - - - -
24/03:30am 7.2 - - - 1008.9 - - - - - - - - -
24/03:00am 6.8 - - - 1008.9 - - - - - - - - -
24/02:30am 6.3 - - - 1008.8 - - - - - - - - -
24/02:00am 6.2 - - - 1008.7 - - - - - - - - -
24/01:30am 6.5 - - - 1008.7 - - - - - - - - -
24/01:00am 6.2 - - - 1008.7 - - - - - - - - -
24/12:30am 4.6 - - - 1008.7 - - - - - - - - -
24/12:00am 5.0 - - - 1008.8 - - - - - - - - -
 
Date/Time
EST
Temp
°C
Wind Pressure Rain since
9am
mm
Weather Cloud Vis
km
Sea
Height
m
Swell
Dir  Spd
kts
Gust
kts
hPa Trend Height
m
Period
s
Dir
23/11:30pm 4.8 - - - 1008.9 - - - - - - - - -
23/11:00pm 4.9 - - - 1009.0 - - - - - - - - -
23/10:30pm 6.3 - - - 1009.0 - - - - - - - - -
23/10:00pm 6.2 - - - 1008.6 - - - - - - - - -
23/09:30pm 6.9 - - - 1008.4 - - - - - - - - -
23/09:00pm 7.4 - - - 1008.1 - - - - - - - - -
23/08:30pm 7.4 - - - 1007.6 - - - - - - - - -
23/08:00pm 7.6 - - - 1007.0 - - - - - - - - -
23/07:30pm 7.8 - - - 1006.4 - - - - - - - - -
23/07:00pm 8.0 - - - 1005.9 - - - - - - - - -
23/06:30pm 8.2 - - - 1005.3 - - - - - - - - -
23/06:00pm 8.0 - - - 1004.8 - - - - - - - - -
23/05:30pm 8.1 - - - 1004.4 - - - - - - - - -
23/05:00pm 8.6 - - - 1003.8 - - - - - - - - -
23/04:30pm 9.0 - - - 1003.1 - - - - - - - - -
23/04:00pm 9.5 - - - 1002.3 - - - - - - - - -
23/03:30pm 10.3 - - - 1001.5 - - - - - - - - -
23/03:00pm 11.4 - - - 1000.6 - - - - - - - - -
23/02:30pm 12.7 - - - 999.9 - - - - - - - - -
23/02:00pm 12.6 - - - 999.8 - - - - - - - - -
23/01:30pm 12.8 - - - 999.3 - - - - - - - - -
23/01:00pm 12.6 - - - 998.8 - - - - - - - - -
23/12:30pm 11.9 - - - 998.7 - - - - - - - - -
23/12:00pm 11.8 - - - 999.2 - - - - - - - - -
23/11:30am 12.0 - - - 999.3 - - - - - - - - -
23/11:00am 12.3 - - - 999.5 - - - - - - - - -

Other Formats:

Comma delimited format used in spreadsheet applications
http://www.bom.gov.au/fwo/IDT60701/IDT60701.95987.axf

JavaScript Object Notation format (JSON) in row-major order
http://www.bom.gov.au/fwo/IDT60701/IDT60701.95987.json